Flag for Switzerland Weather past 2 weeks in Sion, Valais, Switzerland

Now
52 °F

Cool.


Feels Like: 51 °F
Forecast: 53 / 69 °F
Wind: 3 mph from East

Location: Sion

Current Time: Sep 23, 2014 at 11:27:47 AM

Latest Report: Sep 23, 2014 at 10:00 AM


Visibility: N/A

Pressure: 30.11 "Hg

Humidity: 69%

Dew point: 42 °F

Location of SionLocation

Historic Weather in Sion — Graph

°F

Sion temperature yesterday

Maximum temperature yesterday: 70 °F (at 5:00 PM)
Minimum temperature yesterday: 51 °F (at 11:00 PM)
Average temperature yesterday: 61 °F

Past Weeks' High & Low Weather Summary

 TemperatureHumidityPressure
High82 °F (Sep 8, 5:00 PM)98% (Sep 10, 12:00 AM)30.14 "Hg (Sep 10, 12:00 AM)
Low44 °F (Sep 23, 6:00 AM)40% (Sep 8, 2:00 PM)29.77 "Hg (Sep 11, 4:00 PM)
Average64 °F71%29.97 "Hg
* Reported Sep 8 10:00 AM — Sep 23 10:00 AM, Sion, Weather by CustomWeather, © 2014

Note: Actual official high and low records may vary slightly from our data, if they occured in-between our weather recording intervals... More about our weather records

Advertising

Sion weather history for previous 24 hours

 ConditionsComfort  
Time TempWeatherWind HumidityBarometerVisibility
10:00 AM
Sep 23
52 °FCool.3 mph69%30.11 "HgN/A
9:00 AM48 °FCool.5 mph75%30.13 "HgN/A
8:00 AM45 °FFog.3 mph85%30.14 "Hg6 mi
7:00 AM45 °FCool.3 mph84%30.14 "HgN/A
6:00 AM44 °FQuite cool.2 mph90%30.13 "HgN/A
5:00 AM44 °FPassing clouds.1 mph92%30.12 "Hg9 mi
4:00 AM47 °FCool.No wind80%30.11 "HgN/A
3:00 AM47 °FCool.2 mph85%30.12 "HgN/A
2:00 AM47 °FClear.1 mph87%30.10 "Hg12 mi
1:00 AM50 °FCool.5 mph76%30.08 "HgN/A
12:00 AM51 °FCool.2 mph76%30.05 "HgN/A
11:00 PM
Sep 22
51 °FClear.1 mph80%30.06 "Hg12 mi
10:00 PM51 °FCool.2 mph81%30.06 "HgN/A
9:00 PM55 °FCool.1 mph73%30.03 "HgN/A
8:00 PM61 °FPassing clouds.2 mph57%30.01 "Hg19 mi
7:00 PM62 °FRefreshingly cool.12 mph56%29.98 "HgN/A
6:00 PM67 °FMild.21 mph47%29.93 "HgN/A
5:00 PM70 °FPassing clouds.18 mph44%29.93 "Hg19 mi
4:00 PM69 °FMild.20 mph47%29.93 "HgN/A
3:00 PM69 °FMild.21 mph47%29.92 "HgN/A
2:00 PM69 °FPassing clouds.18 mph50%29.94 "Hg19 mi
1:00 PM67 °FMild.10 mph54%29.98 "HgN/A
12:00 PM66 °FMild.8 mph63%30.01 "HgN/A
11:00 AM63 °FScattered clouds.3 mph70%30.04 "Hg19 mi
Weather by CustomWeather, © 2014

See weather overviewHow to use our weather pages

wound